Location: Peterborough
(44.3091°N, 78.3197°W)
Time: 22:29:02
(UTC-04:00)

Tiangong - Visible Passes

Search period start: 10 July 2025 00:00
Search period end: 20 July 2025 00:00
Orbit: 384 x 403 km, 41.5° (Epoch: 10 July)

Date Brightness Start Highest point End Pass type
(mag) Time Alt. Az. Time Alt. Az. Time Alt. Az.
10 Jul 0.7 02:31:50 12° E 02:31:50 12° E 02:32:10 10° E visible
10 Jul -1.9 04:04:14 23° WSW 04:05:58 51° S 04:09:09 10° ESE visible
11 Jul -1.1 03:10:12 37° SE 03:10:12 37° SE 03:12:29 10° E visible
11 Jul -1.5 04:43:01 10° W 04:46:07 38° SSW 04:49:12 10° ESE visible
12 Jul -1.8 03:48:45 38° SW 03:49:27 46° S 03:52:38 10° ESE visible
13 Jul 0.2 02:55:09 16° ESE 02:55:09 16° ESE 02:55:59 10° ESE visible
13 Jul -1.1 04:27:35 16° WSW 04:29:31 27° SSW 04:32:22 10° SE visible
14 Jul -0.4 03:34:26 22° SE 03:34:26 22° SE 03:35:55 10° SE visible
14 Jul 0.0 05:07:58 10° SW 05:09:21 12° SSW 05:10:44 10° S visible
15 Jul 0.1 04:14:23 13° S 04:14:23 13° S 04:15:05 10° SSE visible
16 Jul 0.6 23:02:59 10° SW 23:03:03 10° SW 23:03:03 10° SW visible
17 Jul -0.8 22:06:35 10° SSW 22:09:11 22° SSE 22:10:02 20° SE visible
18 Jul -1.6 22:46:00 10° WSW 22:48:55 41° S 22:48:55 41° S visible
19 Jul -1.3 21:49:22 10° SW 21:52:18 33° SSE 21:55:01 12° E visible
19 Jul -0.3 23:25:55 10° WSW 23:27:24 24° WSW 23:27:24 24° WSW visible
